• In Portugal
  • List of Countries
  • For 7 days
  • Water Temperature
  • Satellite Maps
  • Weather Map
  • Weather Widgets
  • user-avatar
    Login

    Hourly Weather Zaranj

    Today, 24 January, Wednesday

    Time Temperature Precipitation Wind Pressure Humidity
    00:00 +13°C° 0 mm 2 mps 717 mmHg 25%
    01:00 +13°C° 0 mm 2 mps 717 mmHg 25%
    02:00 +12°C° 0 mm 2 mps 717 mmHg 27%
    03:00 +12°C° 0 mm 2 mps 717 mmHg 29%
    04:00 +10°C° 0 mm 2 mps 717 mmHg 30%
    05:00 +10°C° 0 mm 2 mps 717 mmHg 32%
    06:00 +10°C° 0 mm 2 mps 717 mmHg 34%
    07:00 +9°C° 0 mm 2 mps 718 mmHg 37%
    08:00 +12°C° 0 mm 2 mps 718 mmHg 33%
    09:00 +14°C° 0 mm 2 mps 719 mmHg 29%
    10:00 +16°C° 0 mm 2 mps 719 mmHg 25%
    11:00 +17°C° 0 mm 2 mps 719 mmHg 23%
    12:00 +18°C° 0 mm 2 mps 718 mmHg 20%
    13:00 +20°C° 0 mm 2 mps 718 mmHg 18%
    14:00 +20°C° 0 mm 2 mps 718 mmHg 17%
    15:00 +20°C° 0 mm 2 mps 718 mmHg 17%
    16:00 +21°C° 0 mm 2 mps 718 mmHg 16%
    17:00 +20°C° 0 mm 1 mps 718 mmHg 18%
    18:00 +18°C° 0 mm 1 mps 718 mmHg 21%
    19:00 +16°C° 0 mm 1 mps 718 mmHg 23%
    20:00 +15°C° 0 mm 1 mps 719 mmHg 24%
    21:00 +15°C° 0 mm 1 mps 719 mmHg 24%
    22:00 +14°C° 0 mm 1 mps 719 mmHg 25%
    23:00 +14°C° 0 mm 1 mps 719 mmHg 26%

    Tomorrow, 25 January, Thursday

    Time Temperature Precipitation Wind Pressure Humidity
    00:00 +14°C° 0 mm 2 mps 719 mmHg 27%
    01:00 +14°C° 0 mm 2 mps 719 mmHg 28%
    02:00 +13°C° 0 mm 2 mps 719 mmHg 29%
    03:00 +13°C° 0 mm 2 mps 719 mmHg 30%
    04:00 +13°C° 0 mm 2 mps 719 mmHg 31%
    05:00 +12°C° 0 mm 2 mps 719 mmHg 32%
    06:00 +12°C° 0 mm 2 mps 719 mmHg 33%
    07:00 +12°C° 0 mm 2 mps 720 mmHg 34%
    08:00 +14°C° 0 mm 2 mps 720 mmHg 30%
    09:00 +16°C° 0 mm 2 mps 721 mmHg 25%
    10:00 +18°C° 0 mm 2 mps 721 mmHg 21%
    11:00 +19°C° 0 mm 2 mps 721 mmHg 19%
    12:00 +21°C° 0 mm 3 mps 720 mmHg 17%
    13:00 +22°C° 0 mm 3 mps 720 mmHg 15%
    14:00 +22°C° 0 mm 3 mps 720 mmHg 14%
    15:00 +22°C° 0 mm 3 mps 719 mmHg 14%
    16:00 +22°C° 0 mm 3 mps 719 mmHg 14%
    17:00 +21°C° 0 mm 3 mps 719 mmHg 16%
    18:00 +19°C° 0 mm 3 mps 719 mmHg 18%
    19:00 +18°C° 0 mm 3 mps 720 mmHg 20%
    20:00 +17°C° 0 mm 3 mps 720 mmHg 21%
    21:00 +17°C° 0 mm 4 mps 720 mmHg 22%
    22:00 +15°C° 0 mm 4 mps 720 mmHg 23%
    23:00 +14°C° 0 mm 4 mps 720 mmHg 24%

    Day after tomorrow, 26 January, Friday

    Time Temperature Precipitation Wind Pressure Humidity
    00:00 +14°C° 0 mm 4 mps 720 mmHg 25%
    01:00 +13°C° 0 mm 4 mps 720 mmHg 25%
    02:00 +13°C° 0 mm 4 mps 720 mmHg 26%
    03:00 +12°C° 0 mm 4 mps 720 mmHg 28%
    04:00 +12°C° 0 mm 4 mps 719 mmHg 29%
    05:00 +11°C° 0 mm 4 mps 720 mmHg 30%
    06:00 +11°C° 0 mm 4 mps 720 mmHg 32%
    07:00 +10°C° 0 mm 4 mps 720 mmHg 34%
    08:00 +12°C° 0 mm 4 mps 721 mmHg 30%
    09:00 +14°C° 0 mm 4 mps 721 mmHg 27%
    10:00 +15°C° 0 mm 4 mps 721 mmHg 23%
    11:00 +18°C° 0 mm 4 mps 721 mmHg 21%
    12:00 +19°C° 0 mm 4 mps 720 mmHg 18%
    13:00 +20°C° 0 mm 4 mps 720 mmHg 15%
    14:00 +21°C° 0 mm 3 mps 720 mmHg 15%
    15:00 +21°C° 0 mm 3 mps 719 mmHg 14%
    16:00 +21°C° 0 mm 3 mps 719 mmHg 14%
    17:00 +20°C° 0 mm 2 mps 719 mmHg 16%
    18:00 +18°C° 0 mm 2 mps 719 mmHg 18%
    19:00 +17°C° 0 mm 2 mps 719 mmHg 20%
    20:00 +16°C° 0 mm 2 mps 719 mmHg 21%
    21:00 +16°C° 0 mm 2 mps 719 mmHg 22%
    22:00 +15°C° 0 mm 2 mps 720 mmHg 24%
    23:00 +15°C° 0 mm 2 mps 719 mmHg 25%

    27 January, Saturday

    Time Temperature Precipitation Wind Pressure Humidity
    00:00 +14°C° 0 mm 2 mps 719 mmHg 26%
    01:00 +13°C° 0 mm 3 mps 719 mmHg 27%
    02:00 +12°C° 0 mm 3 mps 718 mmHg 28%
    03:00 +12°C° 0 mm 3 mps 718 mmHg 29%
    04:00 +11°C° 0 mm 3 mps 718 mmHg 30%
    05:00 +11°C° 0 mm 3 mps 718 mmHg 31%
    06:00 +10°C° 0 mm 3 mps 718 mmHg 32%
    07:00 +10°C° 0 mm 3 mps 719 mmHg 33%
    08:00 +12°C° 0 mm 3 mps 719 mmHg 30%
    09:00 +13°C° 0 mm 3 mps 719 mmHg 26%
    10:00 +16°C° 0 mm 3 mps 720 mmHg 23%
    11:00 +17°C° 0 mm 3 mps 719 mmHg 21%
    12:00 +18°C° 0 mm 2 mps 718 mmHg 18%
    13:00 +20°C° 0 mm 2 mps 718 mmHg 16%
    14:00 +20°C° 0 mm 2 mps 717 mmHg 15%
    15:00 +20°C° 0 mm 2 mps 717 mmHg 15%
    16:00 +22°C° 0 mm 1 mps 716 mmHg 14%
    17:00 +20°C° 0 mm 1 mps 716 mmHg 16%
    18:00 +19°C° 0 mm 1 mps 716 mmHg 17%
    19:00 +16°C° 0 mm 1 mps 717 mmHg 19%
    20:00 +16°C° 0 mm 1 mps 717 mmHg 20%
    21:00 +15°C° 0 mm 2 mps 717 mmHg 21%
    22:00 +15°C° 0 mm 2 mps 717 mmHg 21%
    23:00 +14°C° 0 mm 3 mps 716 mmHg 23%

    28 January, Sunday

    Time Temperature Precipitation Wind Pressure Humidity
    00:00 +13°C° 0 mm 3 mps 716 mmHg 25%
    01:00 +13°C° 0 mm 4 mps 716 mmHg 27%
    02:00 +12°C° 0 mm 5 mps 716 mmHg 29%
    03:00 +10°C° 0 mm 5 mps 715 mmHg 31%
    04:00 +9°C° 0 mm 6 mps 715 mmHg 33%
    05:00 +9°C° 0 mm 5 mps 715 mmHg 33%
    06:00 +8°C° 0 mm 5 mps 716 mmHg 33%
    07:00 +7°C° 0 mm 5 mps 716 mmHg 33%
    08:00 +9°C° 0 mm 5 mps 716 mmHg 28%
    09:00 +10°C° 0 mm 5 mps 716 mmHg 24%
    10:00 +12°C° 0 mm 5 mps 716 mmHg 20%
    11:00 +13°C° 0 mm 6 mps 715 mmHg 19%
    12:00 +14°C° 0 mm 6 mps 715 mmHg 17%
    13:00 +15°C° 0 mm 6 mps 714 mmHg 16%
    14:00 +15°C° 0 mm 7 mps 713 mmHg 17%
    15:00 +13°C° 0 mm 8 mps 713 mmHg 19%
    16:00 +13°C° 0 mm 9 mps 712 mmHg 20%
    17:00 +11°C° 0 mm 10 mps 712 mmHg 28%
    18:00 +8°C° 0 mm 11 mps 713 mmHg 35%
    19:00 +5°C° 0 mm 12 mps 713 mmHg 42%
    20:00 +4°C° 0 mm 12 mps 714 mmHg 47%
    21:00 +3°C° 0 mm 12 mps 714 mmHg 51%
    22:00 +1°C° 0 mm 13 mps 715 mmHg 55%
    23:00 0°C° 0 mm 13 mps 715 mmHg 55%

    29 January, Monday

    Time Temperature Precipitation Wind Pressure Humidity
    00:00 0°C° 0 mm 12 mps 716 mmHg 55%
    01:00 -1°C° 0 mm 12 mps 716 mmHg 55%
    02:00 -2°C° 0 mm 12 mps 717 mmHg 55%
    03:00 -2°C° 0 mm 12 mps 717 mmHg 54%
    04:00 -3°C° 0 mm 12 mps 718 mmHg 54%
    05:00 -3°C° 0 mm 12 mps 719 mmHg 53%
    06:00 -5°C° 0 mm 12 mps 720 mmHg 52%
    07:00 -5°C° 0 mm 12 mps 721 mmHg 51%
    08:00 -3°C° 0 mm 12 mps 721 mmHg 46%
    09:00 -2°C° 0 mm 12 mps 722 mmHg 42%
    10:00 -1°C° 0 mm 12 mps 723 mmHg 38%
    11:00 +1°C° 0 mm 11 mps 722 mmHg 34%
    12:00 +2°C° 0 mm 11 mps 722 mmHg 30%
    13:00 +3°C° 0 mm 10 mps 721 mmHg 27%
    14:00 +3°C° 0 mm 10 mps 721 mmHg 25%
    15:00 +3°C° 0 mm 9 mps 721 mmHg 24%
    16:00 +3°C° 0 mm 9 mps 721 mmHg 22%
    17:00 +2°C° 0 mm 8 mps 721 mmHg 22%
    18:00 +1°C° 0 mm 8 mps 722 mmHg 23%
    19:00 +2°C° 0 mm 7 mps 722 mmHg 23%
    20:00 0°C° 0 mm 7 mps 723 mmHg 22%
    21:00 +1°C° 0 mm 6 mps 723 mmHg 22%
    22:00 +1°C° 0 mm 6 mps 723 mmHg 21%
    23:00 0°C° 0 mm 5 mps 723 mmHg 21%
    Show more